Location: Nelson
(41.2830°S, 173.2830°E)
Time: 05:56:07
(UTC+12:00)

Cosmos 2058 - Pass Details

Date: 14 May 2021
Orbit: 561 x 584 km, 82.5° (Epoch: 17 June)

Event Time Altitude Azimuth Distance (km) Brightness Sun altitude
Rises 17:53:45 0° 8° (N) 2,750 6.5 -6.9°
Reaches altitude 10° 17:55:58 10° 14° (NNE) 1,865 5.6 -7.3°
Maximum altitude 17:59:54 45° 87° (E) 787 3.2 -8.0°
Drops below altitude 10° 18:03:54 10° 160° (SSE) 1,904 5.2 -8.7°
Sets 18:06:11 0° 165° (SSE) 2,815 6.1 -9.1°
